Location: Oberwangen
(47.4286°N, 8.9679°E)
Time: 09:31:42
(UTC+00:00)

Lacrosse 5 rocket - Pass Details

Date: 20 June 2021
Orbit: 460 x 633 km, 57.0° (Epoch: 04 August)

Event Time Altitude Azimuth Distance (km) Brightness Sun altitude
Rises 20:23:45 0° 229° (SW) 2,550 4.7 -8.2°
Reaches altitude 10° 20:25:56 10° 229° (SW) 1,651 3.8 -8.4°
Maximum altitude 20:29:37 85° 141° (SE) 476 0.9 -8.8°
Drops below altitude 10° 20:33:14 10° 53° (NE) 1,616 3.7 -9.2°
Sets 20:35:21 0° 53° (NE) 2,490 4.7 -9.4°
